FREGAT DEB, 45831

Orbit data source: Space-Track

FREGAT DEB, 45831 is space debris in LEO originally from a launch on Mon, 18 Jul 2011 UTC launched from the Tyuratam Missile And Space Complex (TTMTR). Debris objects in space refer to the collection of defunct objects orbiting the Earth. Examples of debris include non-operational satellites, rocket bodies, and fragments generated from explosions, collisions, or faulty payload assembly.

Loading next visibility...
Identifier
45831, 2011-037BR
Orbit
LEO
Country
Flag of CISCIS
Related business
Manufacturer
Lavochkin
Mission
Spacecraft
Bus & Motor
Unknown
Mass
Unknown
Launch date (UTC)
2011-07-18 (15 years ago)
Launch vehicle
Unknown
Launch site
Tyuratam Missile And Space Complex (TTMTR)
Object type
Payload
Rocket body
Debris
Shape & HBR
Unknown shape, 0.1 m
Radar Cross Section
Medium (>0.1 m² and <1 m²)

Expand to show TLE details & history
Last TLE update: 12 hours ago

TLE from 12 hours ago
0 FREGAT DEB
1 45831U 11037BR  26255.07975027  .00000370  00000-0  23349-3 0  9994
2 45831  51.4424 166.3395 1629561 236.6350 106.8024 11.56311481263958
Epoch: 2026-09-12T01:54Z
TLE epoch observation values (Epoch: 2026-09-12T01:54:50.423Z)
Latitude
0.00005°
Longitude
146.53554°
Altitude
2,457.245 km
Speed
6.481 km/s
True Right ascension
11h 05m 21s
True Declination
0° 00' 00"
Sunlit
Object was in daylight at epoch
Visualization orbit readout
Latitude
Unknown
Longitude
Unknown
Altitude
Unknown
Speed
Unknown
Apparent Right ascension
Unknown
Apparent Declination
Unknown
Sunlit
N/A
Visualization observer readout
Local Sidereal Time
06:07:04
Azimuth
Unknown
Elevation
Unknown
Doppler factor
Unknown
Orbital elements
Apogee altitude
3,229.274 km
Perigee altitude
536.848 km
Semi-major axis
8,261.198 km
Eccentricity
0.16296
Inclination
51.4424°
RAAN
166.3395°
Arg. of periapsis
236.635°
True anomaly
123.44744°
Mean anomaly
106.8024°
Eccentric anomaly
115.24722°
Mean motion
2.89054 °/min
Orbital period
124.54 mins
BSTAR
0.00023349
Loading maneuver chart data...
Computing Atmospheric mass density...
Loading historical data...
Loading historical data...
Loading historical data...
Loading historical data...
Loading historical data...
Loading historical data...
Loading historical data...

Documentation

Showing up to 5 results
|